Location: Bad Salzschlirf
(50.3750°N, 9.3000°E)
Time: 03:36:26
(UTC+02:00)

ISS - Pass Details

Date: 09 July 2020
Orbit: 417 x 421 km, 51.6° (Epoch: 08 July)

Event Time Altitude Azimuth Distance (km) Brightness Sun altitude
Exits shadow 02:38:18 29° 241° (WSW) 799 -2.7 -15.7°
Maximum altitude 02:39:51 74° 162° (SSE) 438 -3.9 -15.6°
Drops below altitude 10° 02:43:13 10° 76° (ENE) 1,498 -0.5 -15.4°
Sets 02:45:19 0° 75° (ENE) 2,363 0.6 -15.3°
